Flag for U.S.A. Weather past 2 weeks in Oberlin, Ohio, U.S.A.

Now
79 °F

Passing clouds.


Feels Like: 79 °F
Forecast: 52 / 81 °F
Wind: 7 mph from Southwest

Location: Lorain County Regional Airport

Current Time: May 24, 2015 at 6:22:24 PM

Latest Report: May 24, 2015 at 4:53 PM


Visibility: 10 mi

Pressure: 30.18 "Hg

Humidity: 35%

Dew point: 49 °F

Location of OberlinLocation

Historic Weather in Oberlin — Graph

°F

Oberlin temperature yesterday

Maximum temperature yesterday: 73 °F (at 5:53 PM)
Minimum temperature yesterday: 40 °F (at 5:53 AM)
Average temperature yesterday: 58 °F

Past Weeks' High & Low Weather Summary

 TemperatureHumidityPressure
High88 °F (May 11, 3:53 PM)100% (May 14, 12:53 AM)30.50 "Hg (May 14, 12:53 AM)
Low33 °F (May 14, 6:01 AM)24% (May 23, 2:53 PM)29.82 "Hg (May 11, 4:53 PM)
Average61 °F67%30.14 "Hg
* Reported May 9 4:53 PM — May 24 4:53 PM, Oberlin, Weather by CustomWeather, © 2015

Note: Actual official high and low records may vary slightly from our data, if they occured in-between our weather recording intervals... More about our weather records

Advertising

Oberlin weather history for previous 24 hours

 ConditionsComfort  
Time TempWeatherWind HumidityBarometerVisibility
4:53 PM
Sun, May 24
79 °FPassing clouds.7 mph35%30.18 "Hg10 mi
3:53 PM79 °FSunny.15 mph34%30.20 "Hg10 mi
2:53 PM80 °FSunny.12 mph30%30.22 "Hg10 mi
1:53 PM79 °FSunny.12 mph25%30.24 "Hg10 mi
12:53 PM80 °FSunny.14 mph27%30.26 "Hg10 mi
11:53 AM79 °FSunny.13 mph30%30.27 "Hg10 mi
10:53 AM76 °FSunny.10 mph37%30.28 "Hg10 mi
9:53 AM71 °FSunny.10 mph45%30.29 "Hg10 mi
8:53 AM65 °FSunny.9 mph51%30.30 "Hg10 mi
7:53 AM59 °FSunny.6 mph60%30.31 "Hg10 mi
6:53 AM52 °FClear.No wind69%30.31 "Hg10 mi
5:53 AM51 °FClear.No wind69%30.29 "Hg10 mi
4:53 AM52 °FClear.5 mph66%30.28 "Hg10 mi
3:53 AM54 °FClear.6 mph62%30.28 "Hg10 mi
2:53 AM54 °FClear.5 mph62%30.28 "Hg10 mi
1:53 AM55 °FClear.No wind59%30.28 "Hg10 mi
12:53 AM56 °FClear.No wind55%30.30 "Hg10 mi
11:53 PM
Sat, May 23
56 °FClear.No wind53%30.30 "Hg10 mi
10:53 PM59 °FClear.3 mph46%30.30 "Hg10 mi
9:53 PM61 °FClear.3 mph42%30.29 "Hg10 mi
8:53 PM64 °FSunny.5 mph38%30.29 "Hg8 mi
7:53 PM71 °FSunny.6 mph29%30.29 "Hg10 mi
6:53 PM72 °FSunny.7 mph28%30.30 "Hg10 mi
Weather by CustomWeather, © 2015

See weather overviewHow to use our weather pages